NOAA 16 DEB

Satellite information

Favourite Embed

Satellite Type and Status

DEBRISIN ORBIT

Key statistics

Satellite NOAA 16 DEB at a glance.

Uptime

9172

Days in orbit

Revolutions

≈ 14.7

Per day

Orbit

SSO

Sun Synchronous Orbit

Inclination

98.9

Latest

Satellite identification and parameters

Extended collection of information and parameters for NOAA 16 DEB.

Object identification

Identified? True

Debris? True

Object name: NOAA 16 DEB

International designator: 2000-055JG

Object number (NORAD): 41363

Object ID (CCSDS): 41363

Country: UNITED STATES OF AMERICA (US)

Current information (Y/N): Y

RCS size: SMALL

Orbital parameters

Period: 97.789 minutes

Inclination: 98.9103 deg

SMA: 7031.043 km

Apoapsis: 663.579 km

Periapsis: 642.238 km

RAAN: 128.1846 deg

Eccentricy: 0.0015176

Argument of periapsis: 12.0307 deg

Mean anomaly: 348.1257 deg

Mean motion: 14.72560304 rev/day

Mean motion (dot): 0.00037782 rev/day2

B* drag term: 0.0059089 1/REarth

Two-line elements (TLE)

Creation date: Oct. 31, 2025, 10:56 p.m.

Reference frame: TEME

Reference center: EARTH

Epoch: Oct. 31, 2025, 6:41 p.m. UTC

TLE line 0: 0 NOAA 16 DEB

TLE line 1: 1 41363U 00055JG 25304.77908288 .00037782 00000-0 59089-2 0 9990

TLE line 2: 2 41363 98.9103 128.1846 0015176 12.0307 348.1257 14.72560304507275

Live tracking on map

Real-time ground track for satellite NOAA 16 DEB.

In-orbit conjunctions

A list of the most updated potential collisions computed for object NOAA 16 DEB.

Target Orbit TCA Probability of collision Miss distance Type
COSMOS 2251 DEB LEO 2024-11-11 19:36:31 0.0005930623 440.0 (m) DEBRIS
FENGYUN 1C DEB SSO 2024-11-10 18:51:11 0.0009510174 274.0 (m) DEBRIS

Associated space launch

The NOAA K, L and M POES satellites begin the fifth generation of improved environmental monitoring in support of NOAA missions. The instrument payload has significant improvements and additions/deletions. The instrument changes have effected the spacecraft subsystems and data formats.

NOAA 16 DEB was lifted into orbit during the mission ‘Titan II SLV | NOAA 16’, on board a Titan II SLV space rocket.

The launch took place on Sept. 21, 2000, 10:22 a.m. from Space Launch Complex 4W.

For more information about the launch, click the button.

Launch to space Titan II SLV | NOAA 16
Titan II SLV | NOAA 16

Agency: N/A

Status: Launch Successful

Launch date: Sept. 21, 2000, 10:22 a.m. UTC

Rocket: Titan II SLV

Launch pad: Space Launch Complex 4W

Location: Vandenberg SFB, CA, USA

...

Latest news about this satellite

There are no fresh news available about this satellite. Check back as we update our databases every day.


Newsletter sign-up

Weekly statistics, charts and insights to help you stay on top of the space industry.